SCP
0 0 0 0 0 0 0 0 0 0 0 0 0 0 0 0 1 1 1 1 1 1 1 1 1 1 2 2 3 3 3 3 3 4 4 4 3 3 3 2 2 3 2 2
0 0 0 0 0 0 0 0 0 0 0 0 0 0 0 0 1 1 1 1 1 1 1 1 1 1 2 2 3 3 3 4 4 4 4 4 4 4 3 3 3 3 2 2
0 0 0 0 0 0 0 0 0 0 0 0 0 0 0 0 0 1 1 1 1 1 1 1 1 1 2 2 3 3 4 4 5 5 6 5 5 4 4 3 3 2 2 2
0 0 0 0 0 0 0 0 0 0 0 0 0 0 0 0 0 1 1 1 1 1 1 1 1 1 2 2 3 4 4 4 5 6 7 7 6 5 4 4 3 2 2 2
0 0 0 0 0 0 0 0 0 0 0 0 0 0 0 0 1 2 2 2 2 2 2 2 2 2 2 3 4 4 4 5 6 7 8 7 6 5 4 3 3 2 2 2
0 0 0 0 0 0 0 0 0 0 0 0 0 0 1 1 2 2 3 3 3 3 3 2 2 2 2 2 3 4 5 5 6 7 8 7 6 5 4 3 2 2 2 2
0 0 0 0 0 0 0 0 0 0 0 0 0 1 1 1 2 2 2 2 2 2 2 1 1 1 1 1 2 3 4 4 5 5 6 5 4 3 3 2 2 2 2 1
0 0 0 0 0 0 0 0 0 0 0 0 0 1 1 1 1 1 1 1 1 1 1 1 1 0 0 0 1 1 2 2 2 3 3 3 2 2 2 2 1 1 1 1
0 0 0 0 0 0 0 0 0 0 0 0 0 0 0 0 0 0 0 0 1 1 1 0 0 0 0 0 1 1 2 2 1 1 1 1 1 1 1 1 1 0 0 0
0 0 0 0 0 0 0 0 0 0 0 0 0 0 0 0 0 0 0 0 0 1 1 0 0 0 0 0 1 1 2 2 1 1 0 1 1 1 1 0 0 0 0 0
0 0 0 0 0 0 0 0 0 0 0 0 0 0 0 0 0 0 0 0 0 0 0 0 0 0 0 0 1 1 1 1 0 0 0 0 0 0 0 0 0 0 0 0
0 0 0 0 0 0 0 0 0 0 0 0 0 0 0 0 0 0 0 0 0 0 0 0 0 0 0 0 0 0 0 0 0 0 0 0 0 0 0 0 0 0 0 0
0 0 0 0 0 0 0 0 0 0 0 0 0 0 0 0 0 0 0 0 0 0 0 0 0 0 0 0 0 0 0 0 0 0 0 0 0 0 0 0 0 0 0 0
0 0 0 0 0 0 0 0 0 0 0 0 0 0 0 0 0 0 0 0 0 0 0 0 0 0 0 0 0 0 0 0 0 0 0 0 0 0 0 0 0 0 0 0
0 0 0 0 0 0 0 0 0 0 0 0 0 0 0 0 0 0 0 0 0 0 0 0 0 0 0 0 0 0 0 0 0 0 0 0 0 0 0 0 0 0 0 0
0 0 0 0 0 0 0 0 0 0 0 0 0 0 0 0 0 0 0 0 0 0 0 0 0 0 0 0 0 0 0 0 0 0 0 0 0 0 0 0 0 0 0 0
0 0 0 0 0 0 0 0 0 0 0 0 0 0 0 0 0 0 0 0 0 0 0 0 0 0 0 0 0 0 0 0 0 0 0 0 0 0 0 0 0 0 0 0
0 0 0 0 0 0 0 0 0 0 0 0 0 0 0 0 0 0 0 0 0 0 0 0 0 0 0 0 0 0 0 0 0 0 0 0 0 0 0 0 0 0 0 0
0 0 0 0 0 0 0 0 0 0 0 0 0 0 0 0 0 0 0 0 0 0 0 0 0 0 0 0 0 0 0 0 0 0 0 0 0 0 0 0 0 0 0 0
0 0 0 0 0 0 0 0 0 0 0 0 0 0 0 0 0 0 0 0 0 0 0 0 0 0 0 0 0 0 0 0 0 0 0 0 0 0 0 0 0 0 0 0
0 0 0 0 0 0 0 0 0 0 0 0 0 0 0 0 0 0 0 0 0 0 0 0 0 0 0 0 0 0 0 0 0 0 0 0 0 0 0 0 0 0 0 0
0 0 0 0 0 0 0 0 0 0 0 0 0 0 0 0 0 0 0 0 0 0 0 0 0 0 0 0 0 0 0 0 0 0 0 0 0 0 0 0 0 0 0 0
0 0 0 0 0 0 0 0 0 0 0 0 0 0 0 0 0 0 0 0 0 0 0 0 0 0 0 0 0 0 0 0 0 0 0 0 0 0 0 0 0 0 0 0
0 0 0 0 0 0 0 0 0 0 0 0 0 0 0 0 0 0 0 0 0 0 0 0 0 0 0 0 0 0 0 0 0 0 0 0 0 0 0 0 0 0 0 0
0 0 0 0 0 0 0 0 0 0 0 0 0 0 0 0 0 0 0 0 0 0 0 0 0 0 0 0 0 0 0 0 0 0 0 0 0 0 0 0 0 0 0 0
0 0 0 0 0 0 0 0 0 0 0 0 0 0 0 0 0 0 0 0 0 0 0 0 0 0 0 0 0 0 0 0 0 0 0 0 0 0 0 0 0 0 0 0
0 0 0 0 0 0 0 0 0 0 0 0 0 0 0 0 0 0 0 0 0 0 0 0 0 0 0 0 0 0 0 0 0 0 0 0 0 0 0 0 0 0 0 0
Wind_Speed
9 9 9 10 8 7 7 7 8 7 5 4 3 2 2 2 2 3 3 3 3 2 1 1 2 2 3 4 4 5 5 5 4 4 4 4 4 4 3 3 3 2 2 2
9 9 8 9 10 9 8 7 7 7 5 4 4 3 2 2 3 3 4 3 2 2 1 0 1 2 3 3 4 5 5 5 4 4 4 3 4 3 3 2 2 2 2 2
8 7 8 7 6 7 5 4 5 5 4 4 4 3 3 2 3 3 3 2 2 2 1 1 2 2 3 3 4 4 4 4 4 5 4 4 4 3 3 3 2 2 2 2
7 7 8 2 3 3 3 3 4 4 4 3 4 2 3 4 4 3 2 2 2 2 2 2 1 2 2 3 4 4 5 4 4 4 4 4 4 3 3 3 3 2 2 2
5 7 5 3 4 4 4 3 5 4 5 6 5 2 4 6 6 4 3 3 2 2 1 2 2 1 1 2 3 3 3 3 4 4 4 3 3 3 2 2 2 2 2 2
6 7 6 2 4 5 3 1 5 5 5 4 4 2 3 6 5 4 4 4 3 2 2 2 2 1 1 1 2 2 3 3 3 3 3 3 3 2 2 2 2 2 2 2
6 7 4 4 5 4 3 2 5 5 5 4 4 3 4 4 5 4 4 4 3 3 2 2 2 1 0 1 1 1 2 2 3 3 3 3 3 2 2 2 2 2 2 1
4 6 4 4 3 3 3 4 4 5 5 4 4 4 4 4 4 4 4 4 3 3 2 2 2 1 1 1 0 2 3 3 2 3 2 3 3 2 2 2 2 2 2 1
2 1 1 3 4 4 4 3 3 3 4 4 3 3 3 4 3 3 4 4 3 3 3 3 2 1 1 1 0 2 3 3 2 2 2 3 3 3 2 2 2 2 2 2
4 2 2 3 4 4 4 4 4 4 3 3 3 3 3 3 3 3 3 3 3 3 3 3 2 2 1 1 0 1 2 2 2 2 2 2 2 2 2 2 2 2 2 2
6 3 3 3 4 5 5 5 5 5 4 3 3 4 4 3 3 3 3 3 3 3 3 3 2 2 1 1 0 1 2 2 2 2 2 2 1 1 1 1 2 2 2 2
5 4 4 5 5 6 6 6 6 6 5 4 4 4 4 4 3 3 3 3 3 3 3 2 1 1 1 1 1 1 1 2 2 2 2 2 2 1 1 2 2 3 2 1
5 6 5 5 5 6 7 7 7 6 5 5 4 4 4 4 3 3 3 4 4 3 3 2 1 1 0 1 1 2 2 2 2 2 2 2 3 3 2 1 2 2 2 3
4 5 6 5 5 5 6 7 7 6 5 4 4 4 4 4 4 4 4 4 4 3 3 2 2 2 1 1 1 2 2 2 2 3 3 3 3 3 3 3 2 1 2 4
5 6 6 5 5 5 5 6 6 5 4 4 4 4 4 4 4 5 4 4 3 3 2 2 2 2 1 1 2 2 2 2 2 2 3 3 3 3 3 3 2 2 2 2
5 5 5 5 5 6 6 6 6 6 5 5 4 4 4 4 4 4 4 3 3 3 3 2 2 2 1 2 2 2 2 3 3 2 2 3 3 3 3 3 3 3 3 3
5 5 5 6 6 6 6 6 6 5 5 5 5 4 3 3 3 3 4 4 3 3 3 3 2 2 2 2 2 2 2 2 4 3 2 2 3 3 3 3 3 3 3 3
4 4 5 5 5 6 6 6 5 5 4 5 5 4 3 3 3 3 4 4 3 3 3 3 2 2 2 1 1 1 1 2 2 2 2 2 2 2 2 3 3 3 2 3
4 5 5 5 5 5 6 5 5 5 4 4 4 4 4 4 3 3 3 4 4 3 3 2 3 2 2 1 1 1 1 2 2 2 2 2 2 2 2 2 3 3 3 3
4 5 5 5 5 5 5 5 5 5 4 3 3 4 4 4 4 4 3 4 3 3 2 2 2 2 2 2 2 1 2 2 2 2 1 2 2 2 2 2 2 2 3 3
5 5 5 5 5 5 5 5 5 4 4 3 3 3 4 4 4 3 3 3 3 2 2 3 2 2 1 1 2 1 1 2 2 2 2 2 2 2 2 2 2 2 2 2
4 4 5 4 4 5 4 4 4 4 4 3 3 3 3 4 3 3 3 2 2 3 2 2 1 1 1 1 1 1 1 1 1 1 1 1 1 2 1 2 2 2 2 2
5 4 4 4 4 5 4 4 3 3 4 4 3 3 3 3 3 2 3 2 2 3 3 2 2 2 2 1 1 1 1 1 1 1 1 1 1 1 1 2 2 2 2 2
5 4 4 4 4 4 4 4 4 3 3 3 3 3 3 3 3 2 2 3 4 4 3 2 2 2 1 1 1 1 1 1 1 1 1 1 1 1 1 2 1 1 2 2
5 4 4 3 3 3 4 4 4 3 3 3 3 3 3 2 3 3 2 3 4 4 2 2 3 2 1 1 1 1 1 1 1 1 1 1 1 2 2 2 2 2 2 2
4 3 3 3 3 3 3 3 2 3 3 3 3 3 2 2 2 2 2 3 3 4 2 1 1 2 1 1 1 1 1 1 1 1 1 1 1 1 1 1 2 2 2 2
3 3 2 2 2 2 2 2 3 3 3 3 3 3 3 3 3 3 3 2 2 2 1 1 1 1 1 1 1 1 1 1 1 1 1 1 1 1 1 1 1 1 2 2
Wind_Direction
280 285 292 290 283 264 257 259 262 275 288 306 337 348 14 31 66 84 87 88 87 92 115 162 176 182 178 176 173 171 172 179 187 178 172 171 169 166 172 179 179 166 158 155
280 277 275 277 282 276 274 276 265 268 278 315 334 338 4 37 61 74 72 71 76 89 93 158 200 201 195 186 177 173 176 182 177 176 174 170 167 165 172 168 165 159 161 158
281 281 281 268 280 272 271 287 290 283 299 327 333 355 19 50 76 79 67 55 54 47 43 242 226 220 219 196 175 172 178 180 179 177 177 179 172 164 168 175 167 161 158 146
279 278 263 291 347 325 319 345 351 344 350 356 2 34 63 54 57 50 63 62 45 11 349 325 289 233 223 193 177 177 181 181 176 170 172 171 168 174 175 168 166 167 164 168
270 273 265 283 325 330 323 339 14 3 7 16 8 22 67 43 42 34 28 40 28 4 345 335 330 271 222 209 177 173 178 175 169 159 160 161 169 176 167 162 163 163 165 176
261 270 272 332 350 339 307 323 25 14 11 16 7 3 16 18 22 26 15 20 10 355 351 353 340 325 248 215 173 184 177 160 150 153 163 169 168 162 151 152 164 166 173 177
252 262 273 335 340 329 289 20 24 21 20 15 11 6 360 7 6 12 7 9 4 356 351 342 341 339 305 288 211 166 127 129 139 155 163 158 152 148 149 155 158 162 171 173
263 262 272 5 356 7 17 37 28 15 11 2 3 19 13 9 7 6 353 350 351 341 338 337 330 289 229 265 242 119 121 126 137 152 158 142 144 149 154 156 162 175 177 185
264 256 13 29 36 27 25 28 15 2 352 2 355 359 359 355 353 350 342 338 338 334 333 341 349 359 304 286 77 129 134 139 148 151 147 148 153 160 162 165 173 182 176 182
283 270 314 349 19 13 8 358 350 343 341 336 325 331 337 334 333 328 326 322 324 322 319 325 337 352 329 311 206 155 160 155 155 158 153 151 155 160 168 178 182 185 183 183
284 278 298 325 348 346 341 338 334 328 319 311 306 306 310 305 304 306 303 309 307 300 294 301 328 351 343 348 297 200 182 169 169 152 144 137 133 149 172 172 164 168 184 178
286 309 304 309 326 330 325 324 321 315 307 301 294 293 297 294 294 293 290 289 286 289 294 294 299 313 349 326 283 224 199 181 165 155 156 153 145 106 78 153 134 138 146 159
307 314 305 307 313 318 311 308 306 300 294 295 296 292 291 289 287 286 282 280 281 280 286 294 294 280 291 278 265 242 220 195 175 174 176 177 176 169 162 135 136 152 184 193
314 310 301 306 307 306 303 303 302 299 298 302 306 303 297 293 290 286 281 281 281 278 275 272 272 264 254 227 246 251 232 207 201 195 191 193 190 185 181 178 175 187 202 198
289 288 289 297 301 302 305 304 301 301 302 304 301 297 296 298 297 295 293 294 291 280 271 270 262 261 242 214 226 237 236 213 202 201 193 195 193 183 184 189 187 179 163 179
291 293 297 301 302 306 306 302 301 300 300 300 295 291 292 295 295 296 298 297 287 283 280 269 265 266 242 222 223 225 230 231 229 217 205 192 188 187 189 193 194 190 189 187
283 286 292 294 298 302 303 303 300 297 298 298 296 291 289 292 295 295 298 298 291 289 292 282 274 282 255 228 215 212 211 216 229 232 217 199 193 196 197 196 197 199 195 179
288 290 293 297 302 303 302 301 301 304 304 306 304 300 287 281 281 286 292 296 299 301 302 304 299 296 277 238 218 205 210 218 221 228 224 214 210 201 195 194 192 192 185 178
316 313 313 313 312 305 302 303 303 302 302 303 303 304 301 294 288 282 287 289 286 283 286 292 298 295 279 254 256 214 223 230 233 240 232 212 217 219 208 197 194 194 187 181
326 323 321 319 318 315 313 313 309 306 307 308 306 306 306 306 303 295 285 283 281 283 289 293 280 268 254 232 242 224 229 231 229 237 235 221 213 219 218 203 199 200 193 188
325 323 321 322 321 319 318 316 310 309 315 311 303 304 305 304 302 299 293 290 293 303 300 293 285 269 251 238 230 226 223 232 233 224 224 230 218 212 217 210 201 204 199 194
314 313 315 319 317 316 318 314 309 313 315 311 308 306 306 305 307 307 303 297 303 317 315 297 295 291 290 288 229 232 236 237 239 233 229 235 227 212 208 212 211 207 198 193
306 306 311 313 309 306 306 307 315 319 313 308 302 302 305 305 305 302 302 311 317 315 311 292 296 302 304 291 234 232 235 227 221 223 223 228 230 216 212 215 211 203 195 187
307 311 312 311 311 309 309 317 322 315 311 313 315 319 318 316 312 309 305 313 318 309 303 297 295 286 297 264 240 241 241 232 221 215 214 215 219 222 219 213 208 201 194 190
308 307 306 310 312 308 308 315 320 323 325 322 322 327 325 316 306 309 306 300 306 307 298 286 283 277 260 245 238 241 241 234 230 223 219 218 222 223 220 212 204 199 203 202
301 304 309 310 307 308 310 314 318 319 317 316 319 322 323 318 308 302 301 302 300 303 303 275 255 249 238 239 239 236 238 247 242 237 234 232 229 225 224 217 209 204 207 205
295 299 301 303 308 309 306 305 300 299 300 300 303 308 309 307 306 307 308 305 304 301 304 300 293 265 235 245 256 251 247 248 243 234 230 230 234 229 221 223 222 211 201 202